Location: Bonny Doon Airfield
(37.0704°N, 122.1252°W)
Time: 15:59:43
(UTC-07:00)

Envisat - Pass Details

Date: 16 October 2017
Orbit: 764 x 766 km, 98.2° (Epoch: 22 October)

Event Time Altitude Azimuth Distance (km) Brightness Sun altitude
Exits shadow 21:06:42 28° 344° (NNW) 1,416 4.5 -31.9°
Drops below altitude 10° 21:09:02 10° 346° (NNW) 2,306 5.7 -32.4°
Sets 21:11:20 0° 347° (NNW) 3,236 6.6 -32.8°
